When you browse on this site, cookies collect data to enhance your experience and personalize the content and advertising you see.
Visit our Privacy Policy to learn more. By continuing to use the site, you agree to this use of cookies and data.
  • In Schweiz
  • Länderverzeichnis
  • Für 7 Tage
  • Wassertemperatur
  • Wetterkarte
  • Widgets
  • user-avatar
    Anmelden

    Stündliche Wetter Sosnicy

    Heute, 23 August, Freitag

    Zeit Temperatur Niederschläge Wind Luftdruck Luftfeuchtigkeit
    00:00 +12°C° 0 mm 1 m/S 764 mmHg 90%
    01:00 +12°C° 0 mm 1 m/S 764 mmHg 92%
    02:00 +11°C° 0 mm 1 m/S 765 mmHg 93%
    03:00 +11°C° 0 mm 1 m/S 765 mmHg 93%
    04:00 +11°C° 0 mm 1 m/S 764 mmHg 93%
    05:00 +11°C° 0 mm 1 m/S 764 mmHg 92%
    06:00 +12°C° 0 mm 1 m/S 764 mmHg 87%
    07:00 +14°C° 0 mm 2 m/S 765 mmHg 82%
    08:00 +16°C° 0 mm 2 m/S 765 mmHg 77%
    09:00 +17°C° 0 mm 2 m/S 764 mmHg 71%
    10:00 +19°C° 0 mm 3 m/S 764 mmHg 66%
    11:00 +21°C° 0 mm 3 m/S 764 mmHg 60%
    12:00 +21°C° 0 mm 3 m/S 764 mmHg 57%
    13:00 +22°C° 0 mm 4 m/S 763 mmHg 55%
    14:00 +22°C° 0 mm 4 m/S 763 mmHg 52%
    15:00 +22°C° 0 mm 4 m/S 763 mmHg 56%
    16:00 +22°C° 0 mm 3 m/S 763 mmHg 59%
    17:00 +21°C° 0 mm 3 m/S 762 mmHg 62%
    18:00 +20°C° 0 mm 3 m/S 762 mmHg 67%
    19:00 +18°C° 0 mm 3 m/S 762 mmHg 73%
    20:00 +17°C° 0 mm 3 m/S 761 mmHg 78%
    21:00 +17°C° 0 mm 3 m/S 761 mmHg 78%
    22:00 +17°C° 0 mm 4 m/S 761 mmHg 79%
    23:00 +17°C° 0 mm 4 m/S 761 mmHg 79%

    Morgen, 24 August, Samstag

    Zeit Temperatur Niederschläge Wind Luftdruck Luftfeuchtigkeit
    00:00 +15°C° 0 mm 4 m/S 761 mmHg 80%
    01:00 +15°C° 0 mm 4 m/S 761 mmHg 81%
    02:00 +15°C° 0 mm 4 m/S 761 mmHg 82%
    03:00 +15°C° 0 mm 4 m/S 760 mmHg 80%
    04:00 +15°C° 0 mm 4 m/S 760 mmHg 78%
    05:00 +15°C° 0 mm 4 m/S 760 mmHg 76%
    06:00 +17°C° 0 mm 4 m/S 760 mmHg 76%
    07:00 +18°C° 0 mm 4 m/S 760 mmHg 75%
    08:00 +18°C° 0 mm 4 m/S 760 mmHg 74%
    09:00 +19°C° 0 mm 4 m/S 760 mmHg 74%
    10:00 +20°C° 0 mm 4 m/S 760 mmHg 74%
    11:00 +20°C° 0 mm 4 m/S 760 mmHg 74%
    12:00 +21°C° 0.3 mm 4 m/S 760 mmHg 72%
    13:00 +22°C° 0.3 mm 4 m/S 760 mmHg 71%
    14:00 +22°C° 0.3 mm 4 m/S 760 mmHg 69%
    15:00 +22°C° 0.1 mm 3 m/S 760 mmHg 67%
    16:00 +22°C° 0.1 mm 3 m/S 760 mmHg 65%
    17:00 +23°C° 0.1 mm 2 m/S 760 mmHg 64%
    18:00 +20°C° 0 mm 2 m/S 760 mmHg 69%
    19:00 +19°C° 0 mm 2 m/S 761 mmHg 75%
    20:00 +17°C° 0 mm 2 m/S 761 mmHg 81%
    21:00 +16°C° 0 mm 2 m/S 761 mmHg 83%
    22:00 +15°C° 0 mm 1 m/S 762 mmHg 85%
    23:00 +14°C° 0 mm 1 m/S 762 mmHg 87%

    übermorgen, 25 August, Sonntag

    Zeit Temperatur Niederschläge Wind Luftdruck Luftfeuchtigkeit
    00:00 +13°C° 0 mm 1 m/S 762 mmHg 89%
    01:00 +12°C° 0 mm 1 m/S 762 mmHg 91%
    02:00 +12°C° 0 mm 1 m/S 763 mmHg 92%
    03:00 +11°C° 0 mm 1 m/S 763 mmHg 93%
    04:00 +11°C° 0 mm 1 m/S 763 mmHg 94%
    05:00 +11°C° 0 mm 1 m/S 763 mmHg 95%
    06:00 +12°C° 0 mm 1 m/S 763 mmHg 89%
    07:00 +14°C° 0 mm 1 m/S 764 mmHg 83%
    08:00 +16°C° 0 mm 1 m/S 764 mmHg 76%
    09:00 +19°C° 0 mm 1 m/S 764 mmHg 70%
    10:00 +20°C° 0 mm 1 m/S 764 mmHg 64%
    11:00 +22°C° 0 mm 1 m/S 764 mmHg 58%
    12:00 +21°C° 0 mm 0 m/S 764 mmHg 56%
    13:00 +21°C° 0 mm 0 m/S 764 mmHg 54%
    14:00 +22°C° 0 mm 0 m/S 764 mmHg 52%
    15:00 +21°C° 0 mm 0 m/S 763 mmHg 54%
    16:00 +21°C° 0 mm 0 m/S 763 mmHg 57%
    17:00 +22°C° 0 mm 1 m/S 763 mmHg 59%
    18:00 +18°C° 0 mm 0 m/S 763 mmHg 67%
    19:00 +16°C° 0 mm 0 m/S 763 mmHg 75%
    20:00 +14°C° 0 mm 0 m/S 763 mmHg 83%
    21:00 +13°C° 0 mm 0 m/S 763 mmHg 85%
    22:00 +13°C° 0 mm 0 m/S 763 mmHg 87%
    23:00 +13°C° 0 mm 1 m/S 763 mmHg 89%

    26 August, Montag

    Zeit Temperatur Niederschläge Wind Luftdruck Luftfeuchtigkeit
    00:00 +13°C° 0 mm 1 m/S 763 mmHg 90%
    01:00 +13°C° 0 mm 1 m/S 763 mmHg 91%
    02:00 +12°C° 0 mm 1 m/S 763 mmHg 92%
    03:00 +12°C° 0 mm 1 m/S 763 mmHg 92%
    04:00 +12°C° 0 mm 1 m/S 763 mmHg 93%
    05:00 +11°C° 0 mm 1 m/S 763 mmHg 93%
    06:00 +13°C° 0 mm 1 m/S 763 mmHg 86%
    07:00 +15°C° 0 mm 1 m/S 763 mmHg 79%
    08:00 +18°C° 0 mm 1 m/S 763 mmHg 72%
    09:00 +20°C° 0 mm 1 m/S 763 mmHg 66%
    10:00 +22°C° 0 mm 1 m/S 763 mmHg 60%
    11:00 +23°C° 0 mm 2 m/S 762 mmHg 54%
    12:00 +24°C° 0 mm 2 m/S 762 mmHg 52%
    13:00 +24°C° 0 mm 2 m/S 762 mmHg 50%
    14:00 +25°C° 0 mm 2 m/S 762 mmHg 48%
    15:00 +25°C° 0 mm 2 m/S 761 mmHg 52%
    16:00 +24°C° 0 mm 2 m/S 761 mmHg 57%
    17:00 +24°C° 0 mm 1 m/S 760 mmHg 61%
    18:00 +22°C° 0 mm 1 m/S 760 mmHg 67%
    19:00 +20°C° 0 mm 1 m/S 760 mmHg 73%
    20:00 +18°C° 0 mm 1 m/S 760 mmHg 79%
    21:00 +18°C° 0 mm 1 m/S 760 mmHg 82%
    22:00 +17°C° 0 mm 2 m/S 760 mmHg 85%
    23:00 +16°C° 0 mm 2 m/S 761 mmHg 87%

    27 August, Dienstag

    Zeit Temperatur Niederschläge Wind Luftdruck Luftfeuchtigkeit
    00:00 +16°C° 0 mm 2 m/S 761 mmHg 89%
    01:00 +15°C° 0 mm 1 m/S 760 mmHg 91%
    02:00 +15°C° 0 mm 1 m/S 760 mmHg 92%
    03:00 +15°C° 0 mm 1 m/S 760 mmHg 93%
    04:00 +15°C° 0 mm 1 m/S 760 mmHg 93%
    05:00 +14°C° 0 mm 1 m/S 760 mmHg 94%
    06:00 +16°C° 0 mm 1 m/S 760 mmHg 89%
    07:00 +18°C° 0 mm 1 m/S 760 mmHg 84%
    08:00 +20°C° 0 mm 1 m/S 761 mmHg 79%
    09:00 +20°C° 0 mm 2 m/S 761 mmHg 74%
    10:00 +23°C° 0 mm 2 m/S 761 mmHg 68%
    11:00 +24°C° 0 mm 2 m/S 761 mmHg 63%
    12:00 +25°C° 0 mm 2 m/S 761 mmHg 61%
    13:00 +25°C° 0 mm 2 m/S 761 mmHg 58%
    14:00 +26°C° 0 mm 2 m/S 760 mmHg 56%
    15:00 +25°C° 0 mm 2 m/S 760 mmHg 59%
    16:00 +25°C° 0 mm 2 m/S 760 mmHg 62%
    17:00 +25°C° 0 mm 2 m/S 760 mmHg 65%
    18:00 +23°C° 0 mm 1 m/S 760 mmHg 70%
    19:00 +21°C° 0 mm 1 m/S 760 mmHg 76%
    20:00 +19°C° 0 mm 1 m/S 760 mmHg 82%
    21:00 +18°C° 0 mm 1 m/S 761 mmHg 84%
    22:00 +16°C° 0 mm 1 m/S 761 mmHg 87%
    23:00 +15°C° 0 mm 0 m/S 761 mmHg 89%

    28 August, Mittwoch

    Zeit Temperatur Niederschläge Wind Luftdruck Luftfeuchtigkeit
    00:00 +14°C° 0 mm 0 m/S 761 mmHg 91%
    01:00 +15°C° 0 mm 1 m/S 761 mmHg 92%
    02:00 +15°C° 0 mm 1 m/S 761 mmHg 93%
    03:00 +15°C° 0 mm 1 m/S 761 mmHg 94%
    04:00 +14°C° 0 mm 1 m/S 761 mmHg 94%
    05:00 +14°C° 0 mm 1 m/S 761 mmHg 95%
    06:00 +15°C° 0 mm 1 m/S 761 mmHg 89%
    07:00 +17°C° 0 mm 2 m/S 761 mmHg 84%
    08:00 +18°C° 0 mm 2 m/S 761 mmHg 79%
    09:00 +20°C° 0 mm 2 m/S 761 mmHg 73%
    10:00 +23°C° 0 mm 2 m/S 761 mmHg 67%
    11:00 +24°C° 0 mm 2 m/S 761 mmHg 62%
    12:00 +25°C° 0 mm 2 m/S 761 mmHg 60%
    13:00 +25°C° 0 mm 2 m/S 761 mmHg 58%
    14:00 +26°C° 0 mm 2 m/S 761 mmHg 56%
    15:00 +25°C° 0 mm 2 m/S 760 mmHg 59%
    16:00 +25°C° 0 mm 2 m/S 760 mmHg 62%
    17:00 +25°C° 0 mm 2 m/S 760 mmHg 65%
    18:00 +22°C° 0 mm 3 m/S 760 mmHg 70%
    19:00 +20°C° 0 mm 3 m/S 760 mmHg 75%
    20:00 +18°C° 0 mm 3 m/S 760 mmHg 80%
    21:00 +18°C° 0 mm 3 m/S 760 mmHg 80%
    22:00 +17°C° 0 mm 3 m/S 761 mmHg 80%
    23:00 +17°C° 0 mm 3 m/S 761 mmHg 79%
    Mehr zeigen